• în Republica Moldova
  • Lista ţărilor
  • Pe 7 zile
  • Temperatura apei
  • Hartă satelitară
  • Meteo pe hartă
  • Widget-uri
  • user-avatar
    Intrare

    Meteo pe oră la Canberra

    Astăzi, 19 Octombrie, Vineri

    Timp Temperatura Precipitaţii Vânt Presiune Umiditate
    00:00 +13°C° 0 mm 1 m/s 709 mmHg 85%
    01:00 +12°C° 0 mm 1 m/s 709 mmHg 85%
    02:00 +12°C° 0 mm 1 m/s 709 mmHg 86%
    03:00 +12°C° 0 mm 1 m/s 709 mmHg 87%
    04:00 +11°C° 0 mm 1 m/s 709 mmHg 89%
    05:00 +13°C° 0 mm 1 m/s 709 mmHg 83%
    06:00 +14°C° 0 mm 1 m/s 710 mmHg 77%
    07:00 +16°C° 0 mm 1 m/s 710 mmHg 72%
    08:00 +18°C° 0 mm 2 m/s 710 mmHg 63%
    09:00 +21°C° 0 mm 3 m/s 711 mmHg 53%
    10:00 +24°C° 0 mm 3 m/s 711 mmHg 43%
    11:00 +25°C° 0 mm 4 m/s 710 mmHg 42%
    12:00 +26°C° 0 mm 4 m/s 710 mmHg 40%
    13:00 +26°C° 0 mm 4 m/s 710 mmHg 38%
    14:00 +26°C° 0 mm 4 m/s 709 mmHg 40%
    15:00 +26°C° 0 mm 3 m/s 709 mmHg 43%
    16:00 +26°C° 0 mm 3 m/s 708 mmHg 45%
    17:00 +23°C° 0 mm 2 m/s 708 mmHg 54%
    18:00 +20°C° 0 mm 2 m/s 708 mmHg 64%
    19:00 +18°C° 0 mm 1 m/s 708 mmHg 74%
    20:00 +18°C° 0 mm 1 m/s 708 mmHg 76%
    21:00 +16°C° 0 mm 1 m/s 708 mmHg 78%
    22:00 +15°C° 0 mm 1 m/s 708 mmHg 81%
    23:00 +15°C° 0 mm 1 m/s 708 mmHg 82%

    Mâine, 20 Octombrie, Sâmbătă

    Timp Temperatura Precipitaţii Vânt Presiune Umiditate
    00:00 +15°C° 0 mm 1 m/s 708 mmHg 82%
    01:00 +15°C° 0 mm 1 m/s 707 mmHg 83%
    02:00 +15°C° 0 mm 1 m/s 707 mmHg 82%
    03:00 +15°C° 0 mm 1 m/s 707 mmHg 80%
    04:00 +15°C° 0 mm 1 m/s 707 mmHg 79%
    05:00 +16°C° 0 mm 1 m/s 707 mmHg 76%
    06:00 +18°C° 0 mm 1 m/s 707 mmHg 72%
    07:00 +18°C° 0 mm 2 m/s 707 mmHg 69%
    08:00 +20°C° 0 mm 3 m/s 707 mmHg 65%
    09:00 +22°C° 0 mm 4 m/s 707 mmHg 62%
    10:00 +25°C° 0 mm 5 m/s 707 mmHg 58%
    11:00 +23°C° 1 mm 5 m/s 707 mmHg 64%
    12:00 +23°C° 1 mm 4 m/s 706 mmHg 69%
    13:00 +22°C° 1 mm 4 m/s 706 mmHg 75%
    14:00 +21°C° 2.5 mm 4 m/s 706 mmHg 79%
    15:00 +20°C° 2.5 mm 3 m/s 706 mmHg 83%
    16:00 +19°C° 2.5 mm 3 m/s 706 mmHg 87%
    17:00 +18°C° 1.7 mm 2 m/s 706 mmHg 89%
    18:00 +16°C° 1.7 mm 1 m/s 706 mmHg 92%
    19:00 +15°C° 1.7 mm 1 m/s 707 mmHg 95%
    20:00 +15°C° 0.5 mm 1 m/s 707 mmHg 96%
    21:00 +14°C° 0.5 mm 2 m/s 707 mmHg 96%
    22:00 +14°C° 0.5 mm 2 m/s 708 mmHg 97%
    23:00 +13°C° 0.2 mm 2 m/s 707 mmHg 97%

    Poimâine, 21 Octombrie, Duminică

    Timp Temperatura Precipitaţii Vânt Presiune Umiditate
    00:00 +13°C° 0.2 mm 2 m/s 707 mmHg 97%
    01:00 +12°C° 0.2 mm 2 m/s 707 mmHg 97%
    02:00 +12°C° 0.4 mm 2 m/s 707 mmHg 97%
    03:00 +12°C° 0.4 mm 2 m/s 707 mmHg 97%
    04:00 +12°C° 0.4 mm 2 m/s 707 mmHg 97%
    05:00 +12°C° 0.5 mm 2 m/s 707 mmHg 96%
    06:00 +12°C° 0.5 mm 2 m/s 707 mmHg 96%
    07:00 +12°C° 0.5 mm 2 m/s 708 mmHg 95%
    08:00 +13°C° 0.1 mm 2 m/s 708 mmHg 90%
    09:00 +14°C° 0.1 mm 2 m/s 708 mmHg 86%
    10:00 +15°C° 0.1 mm 2 m/s 708 mmHg 81%
    11:00 +16°C° 0.2 mm 3 m/s 708 mmHg 77%
    12:00 +17°C° 0.2 mm 3 m/s 708 mmHg 73%
    13:00 +18°C° 0.2 mm 3 m/s 707 mmHg 70%
    14:00 +18°C° 0.2 mm 3 m/s 707 mmHg 70%
    15:00 +18°C° 0.2 mm 2 m/s 707 mmHg 70%
    16:00 +18°C° 0.2 mm 2 m/s 706 mmHg 71%
    17:00 +16°C° 0.3 mm 2 m/s 706 mmHg 79%
    18:00 +15°C° 0.3 mm 1 m/s 706 mmHg 86%
    19:00 +13°C° 0.3 mm 1 m/s 707 mmHg 94%
    20:00 +12°C° 0.1 mm 1 m/s 707 mmHg 95%
    21:00 +11°C° 0.1 mm 0 m/s 707 mmHg 96%
    22:00 +11°C° 0.1 mm 0 m/s 707 mmHg 96%
    23:00 +10°C° 0 mm 0 m/s 706 mmHg 96%

    22 Octombrie, Luni

    Timp Temperatura Precipitaţii Vânt Presiune Umiditate
    00:00 +10°C° 0 mm 0 m/s 706 mmHg 97%
    01:00 +11°C° 0 mm 1 m/s 706 mmHg 97%
    02:00 +11°C° 0 mm 1 m/s 706 mmHg 97%
    03:00 +11°C° 0 mm 1 m/s 705 mmHg 97%
    04:00 +11°C° 0 mm 1 m/s 705 mmHg 97%
    05:00 +12°C° 0 mm 1 m/s 706 mmHg 94%
    06:00 +13°C° 0 mm 1 m/s 706 mmHg 91%
    07:00 +14°C° 0 mm 1 m/s 706 mmHg 88%
    08:00 +16°C° 0 mm 2 m/s 707 mmHg 78%
    09:00 +19°C° 0 mm 2 m/s 707 mmHg 68%
    10:00 +21°C° 0 mm 3 m/s 707 mmHg 58%
    11:00 +21°C° 0 mm 3 m/s 706 mmHg 55%
    12:00 +22°C° 0 mm 3 m/s 706 mmHg 51%
    13:00 +23°C° 0 mm 4 m/s 706 mmHg 48%
    14:00 +22°C° 0 mm 4 m/s 705 mmHg 48%
    15:00 +22°C° 0 mm 4 m/s 705 mmHg 48%
    16:00 +22°C° 0 mm 4 m/s 705 mmHg 48%
    17:00 +20°C° 0 mm 4 m/s 705 mmHg 54%
    18:00 +18°C° 0 mm 3 m/s 705 mmHg 59%
    19:00 +16°C° 0 mm 2 m/s 706 mmHg 64%
    20:00 +15°C° 0 mm 2 m/s 706 mmHg 65%
    21:00 +14°C° 0 mm 2 m/s 706 mmHg 65%
    22:00 +13°C° 0 mm 1 m/s 706 mmHg 65%
    23:00 +12°C° 0 mm 1 m/s 706 mmHg 65%

    23 Octombrie, Marţi

    Timp Temperatura Precipitaţii Vânt Presiune Umiditate
    00:00 +12°C° 0 mm 1 m/s 706 mmHg 65%
    01:00 +11°C° 0 mm 1 m/s 705 mmHg 65%
    02:00 +11°C° 0 mm 1 m/s 705 mmHg 66%
    03:00 +11°C° 0 mm 1 m/s 705 mmHg 67%
    04:00 +10°C° 0 mm 1 m/s 705 mmHg 68%
    05:00 +12°C° 0 mm 1 m/s 705 mmHg 63%
    06:00 +14°C° 0 mm 1 m/s 706 mmHg 58%
    07:00 +16°C° 0 mm 1 m/s 706 mmHg 54%
    08:00 +18°C° 0 mm 2 m/s 706 mmHg 47%
    09:00 +21°C° 0 mm 4 m/s 706 mmHg 40%
    10:00 +25°C° 0 mm 5 m/s 707 mmHg 34%
    11:00 +23°C° 0 mm 5 m/s 706 mmHg 37%
    12:00 +23°C° 0 mm 5 m/s 706 mmHg 40%
    13:00 +22°C° 0 mm 5 m/s 706 mmHg 43%
    14:00 +22°C° 0 mm 5 m/s 705 mmHg 43%
    15:00 +22°C° 0 mm 5 m/s 705 mmHg 42%
    16:00 +22°C° 0 mm 5 m/s 705 mmHg 42%
    17:00 +20°C° 0 mm 4 m/s 705 mmHg 48%
    18:00 +18°C° 0 mm 4 m/s 706 mmHg 54%
    19:00 +17°C° 0 mm 3 m/s 706 mmHg 60%
    20:00 +14°C° 0 mm 3 m/s 707 mmHg 63%
    21:00 +13°C° 0 mm 3 m/s 707 mmHg 66%
    22:00 +12°C° 0 mm 2 m/s 708 mmHg 69%
    23:00 +10°C° 0 mm 2 m/s 708 mmHg 70%

    24 Octombrie, Miercuri

    Timp Temperatura Precipitaţii Vânt Presiune Umiditate
    00:00 +9°C° 0 mm 2 m/s 708 mmHg 70%
    01:00 +8°C° 0 mm 1 m/s 708 mmHg 71%
    02:00 +8°C° 0 mm 1 m/s 708 mmHg 70%
    03:00 +7°C° 0 mm 2 m/s 708 mmHg 69%
    04:00 +6°C° 0 mm 2 m/s 708 mmHg 68%
    05:00 +8°C° 0 mm 2 m/s 709 mmHg 63%
    06:00 +9°C° 0 mm 2 m/s 709 mmHg 59%
    07:00 +12°C° 0 mm 2 m/s 710 mmHg 55%
    08:00 +14°C° 0 mm 2 m/s 710 mmHg 49%
    09:00 +16°C° 0 mm 2 m/s 711 mmHg 43%
    10:00 +18°C° 0 mm 3 m/s 711 mmHg 37%
    11:00 +18°C° 0 mm 3 m/s 711 mmHg 36%
    12:00 +19°C° 0 mm 3 m/s 711 mmHg 35%
    13:00 +20°C° 0 mm 3 m/s 710 mmHg 34%
    14:00 +20°C° 0 mm 3 m/s 710 mmHg 36%
    15:00 +19°C° 0 mm 3 m/s 710 mmHg 39%
    16:00 +19°C° 0 mm 3 m/s 710 mmHg 41%
    17:00 +17°C° 0 mm 3 m/s 710 mmHg 51%
    18:00 +14°C° 0 mm 2 m/s 710 mmHg 61%
    19:00 +11°C° 0 mm 1 m/s 710 mmHg 71%
    20:00 +11°C° 0 mm 1 m/s 711 mmHg 78%
    21:00 +9°C° 0 mm 2 m/s 711 mmHg 84%
    22:00 +9°C° 0 mm 2 m/s 712 mmHg 91%
    23:00 +9°C° 0 mm 2 m/s 712 mmHg 92%
    Arată mai mult